Location: Zilina
(49.2170°N, 18.7330°E)
Time: 00:16:40
(UTC+02:00)

ISS - Pass Details

Date: 31 March 2019
Orbit: 408 x 410 km, 51.6° (Epoch: 18 April)

Event Time Altitude Azimuth Distance (km) Brightness Sun altitude
Rises 21:00:47 0° 287° (WNW) 2,340 1.6 -17.3°
Reaches altitude 10° 21:02:53 10° 289° (WNW) 1,476 0.3 -17.6°
Maximum altitude 21:06:11 72° 15° (NNE) 433 -3.8 -18.1°
Enters shadow 21:06:43 57° 75° (ENE) 488 -3.7 -18.1°
